GLOBALSTAR M004 DEB, 43356

Orbit data source: Space-Track

GLOBALSTAR M004 DEB, 43356 is space debris in LEO originally from a launch on Sat, 14 Feb 1998 UTC launched from the Air Force Eastern Test Range (AFETR). Debris objects in space refer to the collection of defunct objects orbiting the Earth. Examples of debris include non-operational satellites, rocket bodies, and fragments generated from explosions, collisions, or faulty payload assembly.

Loading next visibility...
GLOBALSTAR M004 DEB details
Identifier
43356, 1998-008G
Orbit
LEO
Last TLE update3 days ago
Origin
Flag of USBoeing/HB (US)
ManufacturerUnknown
MissionSpacecraft
Bus & MotorUnknown
MassUnknown
Launch date (UTC)
1998-02-14 (27 years ago)
Launch vehicleUnknown
Launch site
Air Force Eastern Test Range (AFETR)
Object type
Payload
Rocket body
Debris
Shape & HBRUnknown
Radar Cross SectionSmall (<0.1 m²)

Expand to show TLE details & history

TLE from 3 days ago
0 GLOBALSTAR M004 DEB
1 43356U 98008G   24359.27116100  .00001207  00000-0  59523-2 0  9993
2 43356  51.9081 350.3979 0034425  86.4321 274.0488 12.77589814416247
Epoch: 2024-12-24T06:30Z
Definitive object data (Epoch: 2024-12-24T06:30:28.31Z)
Latitude
Longitude159.49829°
Altitude1,350.066 km
Speed7.185 km/s
True Right ascension23h 21m 35s
True Declination0° 00' 00"
Sunlit
Object was in daylight at TLE epoch
Visualization TLE readout
Latitude-31.15198°
Longitude123.29346°
Altitude1,378.77 km
Speed7.161 km/s
Apparent Right ascension23h 33m 06s
Apparent Declination-72° 01' 39"
Sunlit
Object is in daylight
Visualization observer readout
Local Sidereal Time19:38:04
Azimuth162.411° S
Elevation-29.184°
Doppler factor1
Orbital elements
Apogee altitude1,378.194 km
Perigee altitude1,324.975 km
Semi-major axis7,729.721 km
Eccentricity0.0034425
Inclination51.9081°
RAAN350.3979°
Arg. of periapsis86.4321°
True anomaly273.65519°
Mean anomaly274.0488°
Eccentric anomaly273.852°
Mean motion3.19372 °/min
BSTAR0.0059523
Orbital period112.72 mins
Loading maneuver chart data...
Loading historical data...
Loading historical data...
Loading historical data...
Loading historical data...
Loading historical data...
Loading historical data...
Loading historical data...

GLOBALSTAR M004 DEB Visibility forecast

Observer location: undefined°, undefined

Span
Click to sort rows by Start time (UTC) header in descending order
Start Az.
Max El. time (UTC)
Max El. Az.
Max El.
End time (UTC)
End Az.
13 mins2024-12-27 00:19:16.435Z184.725° SSW2024-12-27 00:26:16.435Z126.029° SE27.958°2024-12-27 00:32:16.435Z71.555° E
14 mins2024-12-27 02:17:16.435Z238.779° WSW2024-12-27 02:24:16.435Z351.316° N44.272°2024-12-27 02:31:16.435Z50.948° ENE
13 mins2024-12-27 04:17:16.435Z286.844° WNW2024-12-27 04:23:16.435Z348.543° N32.203°2024-12-27 04:30:16.435Z53.284° ENE
13 mins2024-12-27 06:17:16.435Z311.65° NW2024-12-27 06:23:16.435Z13.027° NNE32.626°2024-12-27 06:30:16.435Z79.208° E
15 mins2024-12-27 08:15:16.435Z308.609° NW2024-12-27 08:22:16.435Z8.533° NNE44.654°2024-12-27 08:30:16.435Z124.693° SE
11 mins2024-12-27 10:15:16.435Z281.27° WNW2024-12-27 10:20:16.435Z232.589° WSW26.39°2024-12-27 10:26:16.435Z181.156° SSW
|